This is the latest recevied weather packets stored in our database for station/object KM4KMS. If no packets are shown the sender has not sent any weather packets the latest 10 day(s).
| Time | Temp. | Humidity | Pressure | Rain* | Wind** | Luminosity | Snow |
|---|---|---|---|---|---|---|---|
| 1777677632 | 12.78° C | 58% | 1013.6 hPa | 0 mm | - | 94 W/m² | - |
| 1777677330 | 13.33° C | 56% | 1013.8 hPa | 0 mm | - | 60 W/m² | - |
| 1777677028 | 13.33° C | 56% | 1013.8 hPa | 0 mm | - | 117 W/m² | - |
| 1777676726 | 13.33° C | 56% | 1013.9 hPa | 0 mm | - | 72 W/m² | - |
| 1777676424 | 13.89° C | 57% | 1013.9 hPa | 0 mm | - | 154 W/m² | - |
| 1777676121 | 13.89° C | 57% | 1013.8 hPa | 0 mm | - | 183 W/m² | - |
| 1777675817 | 12.78° C | 55% | 1013.8 hPa | 0 mm | - | 200 W/m² | - |
| 1777675515 | 13.33° C | 56% | 1013.8 hPa | 0 mm | - | 106 W/m² | - |
| 1777675212 | 12.78° C | 58% | 1013.6 hPa | 0 mm | - | 124 W/m² | - |
| 1777674908 | 13.33° C | 58% | 1013.8 hPa | 0 mm | - | 99 W/m² | - |
| 1777674604 | 13.89° C | 57% | 1013.7 hPa | 0 mm | - | 114 W/m² | - |
| 1777674301 | 13.89° C | 57% | 1013.7 hPa | 0 mm | - | 268 W/m² | - |
| 1777673998 | 13.33° C | 58% | 1013.5 hPa | 0 mm | - | 290 W/m² | - |
| 1777673694 | 13.33° C | 56% | 1013.6 hPa | 0 mm | - | 134 W/m² | - |
| 1777673392 | 13.33° C | 61% | 1013.6 hPa | 0 mm | - | 128 W/m² | - |
| 1777673089 | 13.33° C | 60% | 1013.8 hPa | 0 mm | - | 131 W/m² | - |
| 1777672785 | 13.33° C | 60% | 1013.8 hPa | 0 mm | - | 113 W/m² | - |
| 1777672482 | 13.89° C | 57% | 1013.9 hPa | 0 mm | - | 125 W/m² | - |
| 1777672177 | 14.44° C | 56% | 1013.7 hPa | 0 mm | - | 201 W/m² | - |
| 1777671873 | 13.33° C | 58% | 1013.8 hPa | 0 mm | - | 425 W/m² | - |
| 1777671569 | 13.33° C | 58% | 1013.7 hPa | 0 mm | - | 191 W/m² | - |
| 1777671266 | 13.33° C | 60% | 1013.7 hPa | 0 mm | - | 163 W/m² | - |
| 1777670961 | 13.33° C | 60% | 1013.8 hPa | 0 mm | - | 184 W/m² | - |
| 1777670658 | 13.33° C | 60% | 1013.9 hPa | 0 mm | - | 159 W/m² | - |
| 1777670355 | 12.78° C | 59% | 1013.7 hPa | 0 mm | - | 226 W/m² | - |
* Rain latest hour (hover to see other rain measurements)
** Current wind speed in m/s (hover to see current wind gust speed)